Weather Roundup
Issued by NWS Chicago, IL

Home | Current Version | Previous Version | Text Only | Print | Product List | Glossary Off
Versions: 1 2 3 4 5 6 7 8 9 10 11 12 13 14 15 16 17 18 19 20 21 22 23 24 25 26 27 28 29 30 31 32 33 34 35 36 37 38 39 40 41 42 43 44 45 46 47 48 49 50

000
NZUS59 KLOT 170106
HRRLOT

CHICAGO AREA WEATHER ROUNDUP
NATIONAL WEATHER SERVICE CHICAGO/ROMEOVILLE IL
800 PM CDT WED APR 16 2014

NOTE: "FAIR" INDICATES FEW OR NO CLOUDS BELOW 12,000 FEET WITH NO
SIGNIFICANT WEATHER AND/OR OBSTRUCTIONS TO VISIBILITY.

* THESE STATIONS ARE NOT UNDER NWS QUALITY CONTROL. THEY ALSO MAY NOT
  REPORT WEATHER SUCH AS PRECIPITATION OR FOG.

ILZ005-006-012>014-019>023-170200-
NORTHEAST ILLINOIS

CITY           SKY/WX    TMP DP  RH WIND       PRES   REMARKS
OHARE          CLOUDY    49  23  36 SE21      30.13R
MIDWAY         MOCLDY    49  24  37 SE18G25   30.14S
AURORA         CLOUDY    48  27  44 SE16      30.10S
LANSING*       PTCLDY    46  24  40 SE13G21   30.16S
JOLIET*        PTCLDY    47  24  40 SE12G20   30.14R
WAUKEGAN       CLOUDY    42  27  55 SE10G20   30.14R
DUPAGE AIRPORT CLOUDY    49  25  39 SE16      30.11R
WHEELING       CLOUDY    49  24  37 SE20G26   30.14R
KANKAKEE*      CLEAR     46  28  48 SE13      30.15R
MORRIS*        PTCLDY    49  23  35 SE12      30.11S
NORTHERLY IS     N/A     47  30  52 SE21        N/A
$$

WIZ051-052-058>065-066-070>072-170200-
SOUTHEAST WISCONSIN

CITY           SKY/WX    TMP DP  RH WIND       PRES   REMARKS
MILWAUKEE      CLOUDY    42  27  55 SE23G29   30.16R
KENOSHA*       CLOUDY    43  27  53 SE15      30.14R
RACINE*        CLOUDY    41  28  60 SE16G26   30.16S
BURLINGTON     CLOUDY    43  27  53 SW15      30.10F
WAUKESHA       CLOUDY    41  23  48 SE17G26   30.12S
$$

INZ001>003-010>013-019-020-170200-
NORTHWEST INDIANA

CITY           SKY/WX    TMP DP  RH WIND       PRES   REMARKS
GARY*          PTCLDY    50  23  34 SE12G31   30.17S
MICHIGAN CITY* NOT AVBL
RENSSELAER*    NOT AVBL
VALPARAISO     CLEAR     45  22  40 SE13      30.19S
$$

LMZ740>746-170200-
SOUTHERN LAKE MICHIGAN

STATION/POSITION TIME  SKY/WX   TEMP WIND        PRES    VSBY
                                AIR  DIR/SP/G
                 (UTC)          (F)  (DEG/KT/KT) (MB)    (MI)
HARRISON CRIB    0100            44  140/ 17/ 21   N/A
BURNHAM HARBOR   0100            46  120/ 16/ 20   N/A
CALUMET HARBOR   0100            49  140/ 16/ 22 1021.7S
BURNS HARBOR     NOT AVBL
MICHIGAN CITY    0100            47  110/ 11/ 16   N/A
$$

ABBREVIATIONS USED IN REMARKS
   TC - TEMPERATURE IN CELSIUS
  WCI - WIND CHILL INDEX
   HX - HEAT INDEX
  VSB - VISIBILITY
$$


USA.gov is the U.S. government's official web portal to all federal, state and local government web resources and services.